When you browse on this site, cookies collect data to enhance your experience and personalize the content and advertising you see.
Visit our Privacy Policy to learn more. By continuing to use the site, you agree to this use of cookies and data.
  • In Portugal
  • List of Countries
  • For 7 days
  • Water Temperature
  • Weather Map
  • Weather Widgets
  • user-avatar
    Login

    Hourly Weather Moncada

    Today, 19 November, Tuesday

    Time Temperature Precipitation Wind Pressure Humidity
    00:00 +5°C° 0 mm 3 mps 759 mmHg 63%
    01:00 +5°C° 0 mm 3 mps 758 mmHg 64%
    02:00 +5°C° 0 mm 3 mps 758 mmHg 65%
    03:00 +4°C° 0 mm 3 mps 758 mmHg 66%
    04:00 +4°C° 0 mm 3 mps 758 mmHg 66%
    05:00 +4°C° 0 mm 3 mps 759 mmHg 67%
    06:00 +5°C° 0 mm 2 mps 759 mmHg 69%
    07:00 +6°C° 0 mm 2 mps 759 mmHg 62%
    08:00 +8°C° 0 mm 2 mps 759 mmHg 56%
    09:00 +10°C° 0 mm 2 mps 759 mmHg 49%
    10:00 +12°C° 0 mm 2 mps 759 mmHg 43%
    11:00 +14°C° 0 mm 2 mps 758 mmHg 38%
    12:00 +16°C° 0 mm 2 mps 758 mmHg 32%
    13:00 +16°C° 0 mm 2 mps 758 mmHg 31%
    14:00 +16°C° 0 mm 2 mps 757 mmHg 31%
    15:00 +17°C° 0 mm 3 mps 757 mmHg 31%
    16:00 +15°C° 0 mm 2 mps 757 mmHg 40%
    17:00 +13°C° 0 mm 2 mps 757 mmHg 49%
    18:00 +10°C° 0 mm 2 mps 757 mmHg 58%
    19:00 +10°C° 0 mm 2 mps 757 mmHg 59%
    20:00 +9°C° 0 mm 2 mps 758 mmHg 60%
    21:00 +9°C° 0 mm 2 mps 758 mmHg 61%
    22:00 +9°C° 0 mm 2 mps 758 mmHg 61%
    23:00 +8°C° 0 mm 2 mps 757 mmHg 61%

    Tomorrow, 20 November, Wednesday

    Time Temperature Precipitation Wind Pressure Humidity
    00:00 +8°C° 0 mm 2 mps 757 mmHg 61%
    01:00 +8°C° 0 mm 2 mps 757 mmHg 62%
    02:00 +8°C° 0 mm 2 mps 757 mmHg 63%
    03:00 +8°C° 0 mm 2 mps 756 mmHg 64%
    04:00 +8°C° 0 mm 2 mps 756 mmHg 64%
    05:00 +8°C° 0 mm 2 mps 756 mmHg 65%
    06:00 +7°C° 0 mm 2 mps 756 mmHg 65%
    07:00 +9°C° 0 mm 2 mps 756 mmHg 61%
    08:00 +11°C° 0 mm 1 mps 756 mmHg 57%
    09:00 +13°C° 0 mm 1 mps 756 mmHg 52%
    10:00 +14°C° 0 mm 2 mps 755 mmHg 48%
    11:00 +15°C° 0 mm 2 mps 755 mmHg 43%
    12:00 +17°C° 0 mm 2 mps 754 mmHg 38%
    13:00 +17°C° 0 mm 2 mps 754 mmHg 37%
    14:00 +17°C° 0 mm 3 mps 753 mmHg 36%
    15:00 +17°C° 0 mm 3 mps 753 mmHg 35%
    16:00 +15°C° 0 mm 2 mps 753 mmHg 46%
    17:00 +13°C° 0 mm 2 mps 753 mmHg 57%
    18:00 +11°C° 0 mm 1 mps 754 mmHg 68%
    19:00 +10°C° 0 mm 2 mps 754 mmHg 66%
    20:00 +10°C° 0 mm 2 mps 754 mmHg 65%
    21:00 +10°C° 0 mm 2 mps 754 mmHg 63%
    22:00 +10°C° 0 mm 3 mps 754 mmHg 65%
    23:00 +9°C° 0 mm 3 mps 754 mmHg 67%

    Day after tomorrow, 21 November, Thursday

    Time Temperature Precipitation Wind Pressure Humidity
    00:00 +9°C° 0 mm 3 mps 754 mmHg 69%
    01:00 +8°C° 0 mm 4 mps 754 mmHg 71%
    02:00 +8°C° 0 mm 4 mps 754 mmHg 74%
    03:00 +7°C° 0 mm 4 mps 754 mmHg 77%
    04:00 +8°C° 0 mm 3 mps 754 mmHg 78%
    05:00 +8°C° 0 mm 3 mps 754 mmHg 80%
    06:00 +7°C° 0 mm 3 mps 754 mmHg 81%
    07:00 +9°C° 0 mm 3 mps 754 mmHg 75%
    08:00 +11°C° 0 mm 3 mps 754 mmHg 69%
    09:00 +12°C° 0 mm 4 mps 755 mmHg 64%
    10:00 +14°C° 0 mm 4 mps 755 mmHg 57%
    11:00 +15°C° 0 mm 5 mps 754 mmHg 51%
    12:00 +16°C° 0 mm 6 mps 754 mmHg 44%
    13:00 +16°C° 0 mm 6 mps 754 mmHg 44%
    14:00 +16°C° 0 mm 6 mps 754 mmHg 44%
    15:00 +16°C° 0 mm 6 mps 753 mmHg 44%
    16:00 +15°C° 0 mm 5 mps 754 mmHg 49%
    17:00 +13°C° 0 mm 4 mps 754 mmHg 54%
    18:00 +12°C° 0 mm 3 mps 754 mmHg 59%
    19:00 +12°C° 0 mm 3 mps 754 mmHg 60%
    20:00 +12°C° 0 mm 3 mps 754 mmHg 61%
    21:00 +13°C° 0 mm 2 mps 754 mmHg 62%
    22:00 +12°C° 0 mm 2 mps 754 mmHg 65%
    23:00 +12°C° 0 mm 2 mps 754 mmHg 67%

    22 November, Friday

    Time Temperature Precipitation Wind Pressure Humidity
    00:00 +10°C° 0 mm 2 mps 754 mmHg 70%
    01:00 +10°C° 0 mm 2 mps 753 mmHg 70%
    02:00 +11°C° 0 mm 1 mps 753 mmHg 70%
    03:00 +12°C° 0 mm 1 mps 753 mmHg 71%
    04:00 +12°C° 0 mm 1 mps 752 mmHg 71%
    05:00 +12°C° 0 mm 1 mps 752 mmHg 72%
    06:00 +12°C° 0 mm 1 mps 752 mmHg 72%
    07:00 +13°C° 0 mm 1 mps 752 mmHg 72%
    08:00 +13°C° 0 mm 1 mps 752 mmHg 72%
    09:00 +13°C° 0 mm 1 mps 752 mmHg 71%
    10:00 +14°C° 0 mm 1 mps 751 mmHg 70%
    11:00 +14°C° 0 mm 1 mps 750 mmHg 69%
    12:00 +15°C° 0 mm 2 mps 749 mmHg 67%
    13:00 +15°C° 0.1 mm 2 mps 748 mmHg 68%
    14:00 +15°C° 0.1 mm 2 mps 747 mmHg 68%
    15:00 +15°C° 0.1 mm 2 mps 746 mmHg 69%
    16:00 +15°C° 0.8 mm 2 mps 746 mmHg 75%
    17:00 +14°C° 0.8 mm 2 mps 746 mmHg 80%
    18:00 +14°C° 0.8 mm 2 mps 745 mmHg 86%
    19:00 +13°C° 0.5 mm 3 mps 746 mmHg 83%
    20:00 +13°C° 0.5 mm 4 mps 746 mmHg 80%
    21:00 +13°C° 0.5 mm 5 mps 746 mmHg 78%
    22:00 +13°C° 0 mm 6 mps 746 mmHg 76%
    23:00 +12°C° 0 mm 7 mps 746 mmHg 73%

    23 November, Saturday

    Time Temperature Precipitation Wind Pressure Humidity
    00:00 +11°C° 0 mm 8 mps 746 mmHg 71%
    01:00 +11°C° 0 mm 8 mps 746 mmHg 71%
    02:00 +11°C° 0 mm 7 mps 746 mmHg 71%
    03:00 +10°C° 0 mm 7 mps 746 mmHg 70%
    04:00 +10°C° 0 mm 8 mps 746 mmHg 69%
    05:00 +10°C° 0 mm 9 mps 746 mmHg 68%
    06:00 +9°C° 0 mm 10 mps 747 mmHg 67%
    07:00 +11°C° 0 mm 10 mps 747 mmHg 64%
    08:00 +11°C° 0 mm 10 mps 747 mmHg 61%
    09:00 +11°C° 0 mm 11 mps 748 mmHg 58%
    10:00 +13°C° 0 mm 10 mps 748 mmHg 51%
    11:00 +15°C° 0 mm 9 mps 748 mmHg 44%
    12:00 +16°C° 0 mm 8 mps 749 mmHg 36%
    13:00 +16°C° 0 mm 8 mps 749 mmHg 36%
    14:00 +16°C° 0 mm 7 mps 750 mmHg 36%
    15:00 +16°C° 0 mm 7 mps 750 mmHg 37%
    16:00 +14°C° 0 mm 6 mps 751 mmHg 41%
    17:00 +11°C° 0 mm 6 mps 752 mmHg 46%
    18:00 +10°C° 0 mm 5 mps 753 mmHg 50%
    19:00 +9°C° 0 mm 5 mps 754 mmHg 52%
    20:00 +9°C° 0 mm 5 mps 754 mmHg 54%
    21:00 +9°C° 0 mm 5 mps 755 mmHg 55%
    22:00 +9°C° 0 mm 5 mps 756 mmHg 56%
    23:00 +8°C° 0 mm 5 mps 756 mmHg 56%

    24 November, Sunday

    Time Temperature Precipitation Wind Pressure Humidity
    00:00 +8°C° 0 mm 5 mps 756 mmHg 57%
    01:00 +8°C° 0 mm 5 mps 756 mmHg 58%
    02:00 +7°C° 0 mm 4 mps 757 mmHg 60%
    03:00 +7°C° 0 mm 4 mps 757 mmHg 61%
    04:00 +7°C° 0 mm 4 mps 757 mmHg 61%
    05:00 +7°C° 0 mm 4 mps 758 mmHg 61%
    06:00 +7°C° 0 mm 4 mps 758 mmHg 61%
    07:00 +8°C° 0 mm 4 mps 758 mmHg 57%
    08:00 +11°C° 0 mm 4 mps 759 mmHg 53%
    09:00 +12°C° 0 mm 4 mps 759 mmHg 49%
    10:00 +14°C° 0 mm 4 mps 759 mmHg 43%
    11:00 +17°C° 0 mm 4 mps 759 mmHg 37%
    12:00 +18°C° 0 mm 3 mps 759 mmHg 31%
    13:00 +19°C° 0 mm 3 mps 759 mmHg 31%
    14:00 +19°C° 0 mm 3 mps 759 mmHg 31%
    15:00 +19°C° 0 mm 3 mps 759 mmHg 31%
    16:00 +17°C° 0 mm 3 mps 759 mmHg 36%
    17:00 +14°C° 0 mm 3 mps 760 mmHg 41%
    18:00 +12°C° 0 mm 3 mps 760 mmHg 46%
    19:00 +11°C° 0 mm 3 mps 760 mmHg 47%
    20:00 +11°C° 0 mm 3 mps 761 mmHg 49%
    21:00 +11°C° 0 mm 3 mps 761 mmHg 50%
    22:00 +11°C° 0 mm 3 mps 761 mmHg 50%
    23:00 +10°C° 0 mm 3 mps 761 mmHg 50%
    Show more